TimeHST,TemperatureF,Dew PointF,Humidity,Sea Level PressureIn,VisibilityMPH,Wind Direction,Wind SpeedMPH,Gust SpeedMPH,PrecipitationIn,Events,Conditions,WindDirDegrees,DateUTC
12:55 AM,63.3,59.0,86,29.96,10.0,Calm,Calm,-,N/A,,Clear,0,2013-05-08 10:55:00
1:55 AM,63.3,58.8,85,29.94,10.0,NW,3.5,-,N/A,,Clear,320,2013-05-08 11:55:00
2:55 AM,63.0,58.5,85,29.93,10.0,NNW,4.6,-,N/A,,Clear,330,2013-05-08 12:55:00
3:55 AM,62.4,58.8,88,29.92,10.0,NNW,5.8,-,N/A,,Clear,340,2013-05-08 13:55:00
4:55 AM,61.7,57.6,86,29.93,10.0,NNW,5.8,-,N/A,,Clear,330,2013-05-08 14:55:00
5:55 AM,62.4,58.6,87,29.94,10.0,North,3.5,-,N/A,,Clear,350,2013-05-08 15:55:00
6:55 AM,63.9,59.5,86,29.95,10.0,NW,3.5,-,N/A,,Clear,320,2013-05-08 16:55:00
7:55 AM,68.9,60.8,75,29.97,10.0,NW,3.5,-,N/A,,Clear,320,2013-05-08 17:55:00
8:55 AM,72.0,61.2,69,29.98,10.0,NNW,5.8,-,N/A,,Clear,330,2013-05-08 18:55:00
9:55 AM,74.1,60.8,63,29.99,10.0,Variable,4.6,-,N/A,,Clear,0,2013-05-08 19:55:00
10:55 AM,76.5,60.4,58,29.98,5.0,Calm,Calm,-,N/A,,Haze,0,2013-05-08 20:55:00
11:55 AM,79.2,63.3,58,29.98,10.0,Calm,Calm,-,N/A,,Mostly Cloudy,0,2013-05-08 21:55:00
12:55 PM,77.5,61.7,58,29.97,10.0,NW,9.2,-,N/A,,Mostly Cloudy,320,2013-05-08 22:55:00
1:55 PM,76.8,62.8,62,29.96,10.0,NNW,9.2,-,N/A,,Overcast,330,2013-05-08 23:55:00
2:55 PM,77.7,63.1,61,29.93,10.0,NNW,9.2,-,N/A,,Mostly Cloudy,330,2013-05-09 00:55:00
3:55 PM,77.2,63.1,62,29.93,10.0,Variable,5.8,-,N/A,,Overcast,0,2013-05-09 01:55:00
4:55 PM,75.7,62.8,64,29.94,10.0,NNW,6.9,-,N/A,,Mostly Cloudy,340,2013-05-09 02:55:00
5:55 PM,75.7,62.4,63,29.94,10.0,NNW,8.1,-,N/A,,Mostly Cloudy,330,2013-05-09 03:55:00
6:55 PM,73.0,62.4,69,29.95,10.0,North,4.6,-,N/A,,Clear,350,2013-05-09 04:55:00
7:55 PM,69.8,62.6,78,29.97,10.0,Calm,Calm,-,N/A,,Clear,0,2013-05-09 05:55:00
8:55 PM,70.0,62.6,77,29.99,10.0,NNW,5.8,-,N/A,,Clear,340,2013-05-09 06:55:00
9:55 PM,65.3,61.2,86,30.00,10.0,Calm,Calm,-,N/A,,Clear,0,2013-05-09 07:55:00
10:55 PM,64.8,60.8,87,30.01,10.0,Calm,Calm,-,N/A,,Clear,0,2013-05-09 08:55:00
11:55 PM,64.0,60.8,89,30.00,10.0,Calm,Calm,-,N/A,,Scattered Clouds,0,2013-05-09 09:55:00